Wind_Speed
35 32 31 30 29 29 28 28 27 26 24 22 20 19 19 18 18 20 19 19 18 18 17 17 16 16 15 14 13 14 14 15 15 14 14 14 14 14 13 13 11 10 10 10
36 34 32 31 29 29 28 27 26 26 25 23 23 22 22 21 21 21 20 19 19 18 17 17 17 17 16 14 14 14 14 15 15 15 15 14 14 14 13 13 11 11 11 10
38 36 34 34 30 29 29 27 26 26 25 25 24 23 23 22 22 21 21 20 19 19 18 18 17 17 16 15 14 14 15 15 15 15 15 14 14 14 14 13 12 12 12 12
38 37 38 34 31 31 30 30 28 27 26 26 25 24 24 23 21 21 22 22 22 22 20 19 18 17 16 16 16 15 15 15 15 15 15 14 15 15 15 14 14 14 14 14
38 39 40 36 33 32 31 30 30 28 27 26 26 26 26 24 23 22 23 24 22 22 21 20 19 18 17 17 17 16 16 16 16 15 15 15 15 16 16 16 15 15 15 15
38 40 41 36 33 33 32 32 30 30 29 28 27 27 26 26 25 24 23 23 22 22 21 20 19 18 18 17 17 17 16 16 16 16 16 16 16 16 17 16 16 16 16 17
38 39 38 35 35 35 35 33 30 30 30 30 29 28 27 27 27 24 23 24 22 22 21 20 19 19 18 18 18 17 17 17 17 17 17 17 16 17 17 17 17 17 18 18
37 38 37 33 34 36 35 33 32 31 30 31 31 30 29 28 27 25 24 23 23 22 22 21 20 20 19 19 18 18 18 18 18 18 18 18 17 17 18 18 18 18 18 18
36 36 34 34 34 34 34 34 33 32 31 31 31 31 29 28 27 26 25 24 23 23 22 21 21 20 20 19 19 19 19 19 19 18 18 18 18 18 19 19 19 18 19 19
36 36 35 35 35 34 35 34 34 33 32 32 31 31 30 28 28 28 27 25 24 23 23 22 22 21 20 20 20 20 20 20 19 19 19 19 19 19 19 19 19 19 19 19
37 36 35 36 36 36 35 35 34 34 33 33 32 31 29 29 29 28 27 27 25 24 23 23 23 22 21 21 20 20 20 20 19 19 19 19 19 19 20 19 19 19 19 20
36 36 35 35 36 36 36 35 34 33 33 33 32 30 29 30 29 28 27 26 25 25 24 24 23 22 21 21 21 21 20 20 20 20 19 20 20 20 20 20 19 19 20 20
36 36 35 35 36 36 35 34 34 33 32 31 32 31 30 29 28 28 26 25 24 24 24 23 23 22 22 21 22 21 21 21 21 21 21 21 21 21 20 20 20 20 21 21
35 35 35 34 35 36 34 33 33 32 32 30 31 30 30 29 28 27 26 25 24 24 24 24 23 23 22 22 22 22 22 21 21 22 21 22 22 21 21 21 21 21 22 22
34 34 34 34 34 33 32 32 32 32 31 30 30 30 29 29 29 27 26 26 25 25 24 24 24 24 23 22 22 22 21 21 22 22 22 22 22 22 22 22 22 23 23 23
33 34 33 32 31 30 31 31 32 32 32 31 30 30 29 29 28 26 26 27 26 26 25 25 24 24 24 23 22 22 22 22 22 23 23 23 23 23 23 24 24 24 24 24
31 31 31 31 29 29 30 31 32 32 31 31 31 29 27 27 27 26 25 26 25 25 25 25 25 25 24 24 23 23 23 23 24 23 23 24 24 25 25 25 25 25 25 25
33 32 30 29 29 29 29 29 29 30 31 30 30 29 28 28 27 26 26 26 25 25 25 25 25 25 24 23 23 23 24 24 24 25 26 26 26 26 26 26 26 25 25 26
31 30 29 29 29 29 28 28 26 26 27 28 27 27 27 25 25 26 26 26 26 25 25 25 25 24 23 23 23 24 24 25 25 26 26 27 26 26 26 26 26 25 25 25
27 28 28 29 29 29 28 27 27 26 25 25 25 25 25 23 23 24 25 25 25 25 24 23 23 23 23 24 24 25 25 26 26 27 26 26 26 25 25 25 25 25 25 25
26 27 27 28 27 27 26 26 27 27 26 26 25 24 24 24 24 24 24 24 23 23 23 23 23 24 25 25 25 25 26 26 27 27 27 26 26 25 25 25 25 25 25 26
26 27 27 27 27 27 26 25 26 26 26 25 25 24 24 24 24 24 24 24 24 24 24 24 25 26 26 26 25 26 26 26 27 27 27 27 27 26 25 25 26 26 26 26
25 25 26 26 26 27 26 26 26 26 25 25 24 24 24 24 25 25 25 25 25 25 25 25 26 26 26 26 25 26 26 26 27 27 27 27 26 26 26 26 26 26 27 28
23 24 25 26 26 27 27 26 26 26 26 25 25 25 25 24 25 25 25 25 25 26 26 26 26 26 26 25 25 25 25 26 27 27 26 26 26 26 26 26 27 27 28 28
23 23 24 25 26 26 26 27 27 26 25 26 25 25 25 25 24 24 25 25 25 25 24 25 25 25 25 25 26 26 26 26 26 26 26 26 26 26 26 26 28 28 29 29
23 24 24 25 26 26 27 27 27 27 26 26 26 25 25 25 25 25 25 24 24 24 24 25 25 25 25 26 26 27 27 26 26 26 26 26 26 26 26 27 28 29 29 30
22 23 25 26 27 28 28 28 28 27 27 26 25 25 25 24 24 24 24 24 24 24 25 25 25 25 26 26 27 27 27 27 27 26 26 26 26 27 28 28 29 30 30 31
Wind_Direction
219 220 222 224 224 226 228 231 234 237 241 240 243 254 262 269 277 284 284 286 288 288 287 294 297 303 303 306 309 312 316 320 324 325 325 326 326 328 329 327 326 321 314 312
218 219 222 225 226 228 230 232 235 238 240 240 243 252 258 266 272 280 279 284 286 288 291 294 297 300 300 301 304 307 309 314 317 319 320 320 320 321 325 327 326 326 321 315
217 218 222 225 225 228 232 233 237 239 240 241 245 251 258 264 267 274 280 284 285 287 289 291 293 295 296 297 300 303 306 308 312 315 315 315 316 318 320 321 322 320 318 315
217 218 223 224 226 230 234 236 238 240 241 242 244 250 256 262 266 270 277 282 282 283 283 285 286 288 290 293 298 301 304 306 310 312 311 312 314 316 318 320 320 319 317 314
218 220 224 223 226 230 233 236 239 241 242 244 246 251 256 262 267 272 278 280 279 277 278 280 280 281 286 290 295 299 301 304 306 307 307 308 309 312 314 313 314 315 315 314
220 222 224 222 224 229 233 236 239 241 242 244 247 250 256 259 265 271 277 276 274 274 275 276 277 278 282 286 292 296 299 301 301 303 305 305 306 308 311 310 311 311 311 311
222 224 225 223 224 228 233 237 239 242 243 244 248 252 256 260 265 269 272 273 270 271 271 272 274 277 281 284 288 293 297 298 298 300 302 304 307 308 309 310 309 310 311 310
223 224 224 223 226 230 234 238 240 242 245 246 248 251 255 259 262 265 271 272 272 270 270 271 272 277 280 283 285 288 292 294 296 298 300 302 304 306 307 309 309 309 310 311
226 227 226 224 227 231 234 237 240 243 246 250 251 253 258 260 259 262 267 271 271 270 271 269 272 275 277 278 282 285 288 290 292 295 297 299 301 303 305 307 308 308 309 311
225 227 226 225 227 231 234 236 239 243 247 251 253 255 258 259 259 261 263 265 267 268 270 270 270 272 272 275 280 283 286 289 291 292 295 297 299 301 303 305 306 306 307 309
226 227 227 227 228 231 233 236 239 243 247 251 252 253 255 257 260 263 265 263 263 265 268 269 269 270 271 274 278 282 285 287 289 292 293 296 298 300 301 302 303 304 305 307
225 227 229 229 231 233 236 237 240 243 246 250 249 250 253 257 259 262 262 263 263 263 264 265 266 267 270 273 277 280 282 284 286 290 292 294 295 297 299 299 300 302 302 303
227 228 229 231 232 234 236 237 241 244 246 249 250 251 254 256 257 258 259 260 262 261 261 262 263 266 269 273 276 278 280 282 284 287 290 292 295 296 297 298 298 299 300 301
227 227 228 229 230 232 234 238 242 244 247 248 249 250 252 254 255 254 255 257 259 259 259 261 264 267 270 272 275 277 279 281 284 287 289 291 293 294 295 296 297 297 298 299
229 229 229 231 230 231 233 237 241 245 247 250 250 250 252 253 253 252 253 255 256 257 258 261 264 267 268 270 273 275 276 280 284 286 287 289 291 293 294 295 295 296 297 298
229 231 233 232 230 233 234 237 241 246 247 249 251 250 252 252 251 251 252 252 253 255 257 259 262 264 266 268 271 273 275 279 283 285 285 287 290 291 292 293 294 296 297 297
231 232 233 232 234 238 241 243 246 247 247 247 249 248 248 249 250 251 251 252 253 255 256 258 260 262 265 267 270 273 276 279 282 283 285 287 288 289 289 291 293 294 294 295
235 235 234 233 236 239 243 246 248 250 249 247 248 248 247 248 250 251 252 254 256 258 259 259 260 262 264 267 270 273 276 278 281 283 285 287 288 288 288 290 291 292 293 294
232 233 234 235 238 240 243 245 248 251 249 249 253 250 247 249 249 251 253 254 256 257 258 259 260 261 264 267 270 273 276 278 281 285 286 286 286 286 287 289 290 291 294 296
233 236 237 237 238 239 241 243 246 249 249 249 252 252 250 252 252 252 253 255 257 257 256 258 260 262 266 269 272 274 276 278 281 284 284 286 286 285 286 287 290 292 294 296
234 236 237 237 237 238 241 244 244 246 247 248 249 250 253 255 256 256 256 258 259 258 258 260 263 266 269 271 273 275 276 278 280 283 285 286 287 287 287 289 291 294 296 297
233 234 235 236 237 239 242 243 243 244 245 246 248 250 252 254 255 257 258 259 259 259 261 263 265 267 270 272 273 275 276 277 279 281 284 286 287 289 289 291 293 295 296 296
235 235 235 235 237 238 240 241 242 243 244 246 249 250 251 254 255 256 257 256 257 258 261 264 266 267 269 271 273 274 275 276 278 280 282 284 286 287 288 290 293 294 295 296
237 236 235 236 237 238 239 240 241 243 245 247 248 250 252 254 256 257 257 256 258 260 262 263 265 266 268 270 272 274 275 277 279 279 280 283 285 287 289 291 292 294 295 296
236 234 233 234 235 236 239 240 241 243 246 247 249 252 254 256 257 256 256 258 261 262 262 263 264 267 270 271 273 273 275 277 278 278 280 282 284 286 288 291 293 294 295 295
237 235 234 234 236 237 238 240 244 245 246 249 251 253 255 257 257 257 258 259 260 261 264 265 266 268 270 273 273 273 275 276 276 277 279 281 284 286 289 291 293 294 295 296
238 238 237 237 238 239 239 240 242 243 245 248 250 252 254 256 257 258 259 259 260 261 264 267 268 270 272 274 276 275 277 278 277 276 277 279 283 287 288 289 291 293 295 296
Height
5882 5887 5890 5894 5898 5901 5904 5907 5910 5913 5915 5918 5920 5921 5922 5923 5923 5923 5924 5924 5924 5923 5922 5921 5920 5919 5918 5917 5915 5913 5911 5909 5907 5905 5902 5900 5897 5895 5892 5890 5888 5886 5884 5883
5876 5880 5884 5888 5892 5896 5899 5902 5905 5907 5910 5913 5915 5916 5917 5918 5918 5918 5918 5919 5919 5919 5918 5917 5916 5915 5914 5913 5911 5909 5908 5906 5904 5902 5899 5897 5895 5892 5890 5888 5886 5884 5882 5880
5869 5874 5878 5882 5887 5891 5894 5896 5899 5902 5906 5907 5909 5911 5912 5913 5914 5914 5913 5913 5914 5914 5914 5913 5912 5911 5910 5909 5908 5906 5904 5903 5901 5899 5896 5894 5892 5889 5887 5885 5883 5881 5879 5877
5862 5868 5871 5879 5882 5885 5888 5891 5894 5896 5899 5902 5904 5906 5907 5908 5909 5909 5909 5909 5909 5909 5909 5908 5908 5907 5906 5905 5904 5902 5901 5899 5897 5895 5893 5891 5889 5887 5884 5882 5880 5878 5876 5874
5856 5859 5864 5872 5876 5879 5882 5885 5888 5891 5893 5896 5898 5900 5902 5903 5903 5903 5904 5904 5904 5904 5904 5904 5903 5902 5902 5901 5900 5898 5897 5895 5894 5892 5890 5888 5886 5883 5881 5879 5877 5875 5872 5870
5849 5853 5858 5867 5871 5873 5876 5878 5882 5884 5887 5890 5892 5894 5897 5897 5897 5897 5897 5897 5898 5898 5898 5898 5898 5897 5897 5896 5895 5894 5893 5891 5890 5888 5886 5884 5882 5880 5878 5875 5873 5871 5869 5866
5842 5845 5851 5860 5863 5866 5869 5873 5876 5878 5881 5884 5886 5889 5890 5891 5891 5891 5892 5891 5892 5892 5892 5892 5892 5892 5891 5891 5890 5889 5888 5887 5885 5883 5881 5879 5878 5876 5874 5872 5869 5867 5864 5862
5834 5839 5847 5852 5855 5859 5862 5866 5869 5872 5874 5877 5879 5881 5882 5884 5885 5885 5885 5885 5886 5886 5886 5886 5886 5886 5886 5885 5885 5884 5883 5882 5880 5879 5877 5875 5873 5871 5869 5867 5865 5863 5860 5858
5829 5836 5840 5844 5848 5851 5854 5858 5862 5864 5867 5869 5871 5873 5875 5876 5877 5877 5878 5879 5879 5880 5880 5880 5879 5880 5880 5880 5879 5878 5877 5876 5875 5874 5872 5870 5869 5867 5865 5863 5860 5858 5855 5853
5822 5827 5832 5836 5840 5843 5847 5850 5854 5856 5859 5862 5864 5865 5867 5868 5868 5869 5870 5871 5872 5873 5873 5874 5874 5874 5874 5874 5873 5873 5872 5871 5870 5869 5867 5865 5864 5862 5860 5858 5856 5853 5851 5848
5814 5819 5824 5828 5832 5836 5839 5843 5846 5849 5851 5853 5855 5857 5859 5861 5861 5862 5863 5864 5865 5866 5867 5867 5867 5868 5868 5868 5868 5867 5866 5865 5864 5863 5862 5860 5859 5857 5855 5853 5851 5848 5846 5844
5808 5813 5817 5821 5825 5829 5832 5835 5838 5841 5844 5845 5847 5848 5851 5852 5854 5855 5856 5857 5858 5859 5860 5861 5861 5861 5862 5862 5862 5861 5861 5860 5859 5858 5857 5855 5853 5852 5849 5847 5845 5843 5841 5839
5801 5805 5809 5813 5817 5821 5824 5828 5831 5833 5835 5837 5839 5841 5843 5844 5845 5847 5849 5850 5851 5852 5853 5854 5855 5855 5855 5856 5856 5855 5855 5854 5854 5853 5851 5850 5848 5846 5844 5842 5840 5838 5836 5833
5794 5798 5802 5806 5809 5813 5816 5820 5823 5825 5828 5830 5831 5833 5835 5836 5838 5839 5841 5842 5844 5845 5846 5847 5848 5848 5849 5849 5849 5849 5849 5848 5847 5846 5845 5844 5842 5840 5838 5837 5835 5832 5830 5828
5787 5791 5795 5798 5801 5805 5808 5812 5815 5818 5820 5822 5824 5826 5828 5829 5830 5832 5833 5835 5836 5838 5839 5840 5841 5842 5842 5843 5843 5843 5842 5842 5841 5840 5839 5837 5836 5834 5832 5830 5828 5826 5824 5822
5780 5784 5788 5791 5794 5798 5802 5805 5808 5810 5813 5814 5816 5818 5820 5821 5823 5824 5826 5827 5828 5830 5832 5833 5834 5835 5835 5836 5836 5836 5836 5835 5835 5833 5832 5831 5829 5828 5826 5824 5821 5819 5817 5815
5773 5777 5779 5783 5788 5792 5795 5798 5801 5803 5805 5807 5808 5809 5811 5813 5815 5817 5819 5820 5822 5824 5825 5826 5827 5828 5829 5829 5830 5830 5829 5829 5828 5827 5826 5824 5823 5821 5819 5817 5815 5812 5810 5808
5766 5769 5773 5777 5781 5785 5788 5791 5793 5795 5797 5798 5800 5801 5803 5805 5807 5810 5812 5814 5815 5817 5818 5819 5820 5821 5822 5822 5823 5823 5822 5821 5821 5820 5818 5817 5815 5813 5812 5810 5808 5805 5803 5801
5758 5763 5767 5771 5774 5777 5781 5784 5786 5788 5789 5791 5793 5794 5797 5798 5800 5803 5805 5807 5808 5809 5811 5812 5813 5814 5815 5815 5816 5815 5815 5814 5813 5812 5810 5809 5807 5805 5804 5802 5800 5798 5796 5793
5752 5756 5760 5764 5767 5770 5774 5776 5779 5781 5782 5784 5787 5789 5791 5793 5794 5797 5799 5800 5802 5803 5804 5805 5806 5807 5808 5808 5808 5808 5807 5806 5805 5804 5802 5801 5799 5798 5796 5795 5793 5791 5788 5786
5746 5750 5753 5757 5760 5763 5766 5769 5772 5774 5776 5778 5780 5782 5784 5786 5788 5791 5792 5794 5795 5795 5797 5798 5799 5800 5800 5800 5800 5800 5799 5798 5797 5796 5795 5793 5792 5790 5789 5787 5785 5783 5781 5778
5740 5744 5746 5749 5752 5756 5759 5762 5765 5767 5770 5772 5774 5776 5778 5780 5782 5784 5785 5786 5788 5789 5790 5790 5791 5792 5792 5792 5792 5791 5791 5790 5789 5788 5787 5786 5784 5783 5781 5779 5777 5775 5773 5770
5734 5737 5739 5742 5746 5749 5752 5755 5758 5761 5763 5765 5768 5770 5772 5774 5775 5777 5778 5779 5780 5781 5782 5783 5783 5784 5784 5784 5783 5783 5782 5782 5781 5780 5779 5778 5777 5775 5773 5771 5769 5767 5765 5762
5727 5730 5733 5736 5739 5742 5746 5748 5751 5754 5756 5759 5761 5764 5765 5767 5768 5770 5770 5771 5772 5773 5774 5775 5775 5775 5775 5775 5775 5775 5774 5774 5773 5772 5771 5770 5768 5767 5765 5763 5761 5759 5757 5754
5721 5724 5726 5729 5732 5735 5738 5741 5744 5747 5749 5752 5754 5756 5758 5759 5761 5762 5763 5764 5765 5765 5766 5767 5767 5767 5767 5767 5767 5766 5766 5765 5764 5763 5762 5761 5760 5758 5757 5755 5753 5751 5748 5746
5716 5718 5721 5723 5726 5729 5732 5735 5737 5739 5742 5745 5747 5749 5750 5752 5753 5754 5755 5756 5757 5758 5758 5759 5759 5759 5759 5759 5758 5758 5757 5757 5756 5755 5754 5753 5751 5750 5749 5747 5745 5742 5740 5737
5710 5713 5715 5717 5719 5722 5725 5728 5730 5733 5735 5737 5739 5741 5743 5744 5745 5746 5747 5748 5749 5750 5750 5751 5751 5751 5751 5750 5750 5749 5749 5748 5747 5747 5746 5745 5743 5742 5740 5738 5736 5734 5731 5728